| time (UTC) | temp F | wind direction | speed MPH | gust MPH | rain 1hr in | rain 24hr in | rain mn in | humidity % | barometer mb |
| 20260506034616 | 55 | 265 | 2.0 | 11.0 | 0.00 | 0.02 | 0.02 | 54 | 1005.7 |
| 20260506034100 | 55 | 279 | 2.0 | 11.0 | 0.00 | 0.02 | 0.02 | 54 | 1005.8 |
| 20260506033608 | 55 | 267 | 2.0 | 6.0 | 0.00 | 0.02 | 0.02 | 54 | 1005.8 |
| 20260506033055 | 55 | 243 | 1.0 | 8.0 | 0.00 | 0.02 | 0.02 | 53 | 1005.7 |
| 20260506032603 | 55 | 246 | 2.0 | 8.0 | 0.00 | 0.02 | 0.02 | 53 | 1005.6 |
| 20260506032103 | 55 | 240 | 2.0 | 8.0 | 0.00 | 0.02 | 0.02 | 53 | 1005.4 |
| 20260506031603 | 55 | 265 | 2.0 | 8.0 | 0.00 | 0.02 | 0.02 | 53 | 1005.3 |
| 20260506031100 | 56 | 170 | 2.0 | 7.0 | 0.00 | 0.02 | 0.02 | 52 | 1005.3 |
| 20260506030542 | 56 | 165 | 2.0 | 7.0 | 0.00 | 0.02 | 0.02 | 52 | 1005.2 |
| 20260506030043 | 56 | 153 | 2.0 | 7.0 | 0.00 | 0.02 | 0.02 | 52 | 1005.1 |
| 20260506025530 | 56 | 253 | 1.0 | 5.0 | 0.00 | 0.02 | 0.02 | 52 | 1005.2 |
| 20260506025012 | 56 | 244 | 1.0 | 7.0 | 0.00 | 0.02 | 0.02 | 51 | 1005.1 |
| 20260506023851 | 57 | 208 | 2.0 | 7.0 | 0.00 | 0.02 | 0.02 | 50 | 1004.9 |
| 20260506023356 | 57 | 234 | 1.0 | 7.0 | 0.00 | 0.02 | 0.02 | 50 | 1004.9 |
| 20260506022845 | 58 | 227 | 1.0 | 5.0 | 0.00 | 0.02 | 0.02 | 49 | 1004.7 |
| 20260506022353 | 58 | 194 | 2.0 | 7.0 | 0.00 | 0.02 | 0.02 | 49 | 1004.7 |
| 20260506021848 | 58 | 244 | 2.0 | 7.0 | 0.00 | 0.02 | 0.02 | 49 | 1004.6 |
| 20260506021339 | 59 | 227 | 2.0 | 9.0 | 0.00 | 0.02 | 0.02 | 48 | 1004.5 |
| 20260506020237 | 59 | 268 | 1.0 | 9.0 | 0.00 | 0.02 | 0.02 | 49 | 1004.4 |
| 20260506015733 | 59 | 185 | 2.0 | 8.0 | 0.00 | 0.02 | 0.02 | 48 | 1004.3 |
| 20260506015242 | 59 | 209 | 2.0 | 8.0 | 0.00 | 0.02 | 0.02 | 48 | 1004.3 |
| 20260506014735 | 60 | 258 | 2.0 | 8.0 | 0.00 | 0.02 | 0.02 | 48 | 1004.3 |
| 20260506013605 | 60 | 265 | 2.0 | 6.0 | 0.00 | 0.02 | 0.02 | 47 | 1004.5 |
| 20260506013053 | 60 | 258 | 2.0 | 6.0 | 0.00 | 0.02 | 0.02 | 47 | 1004.5 |
| 20260506012554 | 60 | 266 | 2.0 | 6.0 | 0.00 | 0.02 | 0.02 | 47 | 1004.4 |
| 20260506012034 | 60 | 172 | 1.0 | 7.0 | 0.00 | 0.02 | 0.02 | 47 | 1004.4 |
| 20260506011542 | 60 | 257 | 2.0 | 7.0 | 0.00 | 0.02 | 0.02 | 47 | 1004.4 |
| 20260506011037 | 60 | 200 | 2.0 | 8.0 | 0.00 | 0.02 | 0.02 | 47 | 1004.4 |
| 20260506010539 | 60 | 176 | 3.0 | 8.0 | 0.00 | 0.02 | 0.02 | 46 | 1004.4 |
| 20260506010047 | 60 | 275 | 2.0 | 10.0 | 0.00 | 0.02 | 0.02 | 46 | 1004.3 |
| 20260506005541 | 60 | 194 | 2.0 | 10.0 | 0.00 | 0.02 | 0.02 | 47 | 1004.3 |
| 20260506005039 | 60 | 209 | 3.0 | 10.0 | 0.00 | 0.02 | 0.02 | 46 | 1004.3 |
| 20260506004525 | 60 | 254 | 3.0 | 10.0 | 0.00 | 0.02 | 0.02 | 46 | 1004.3 |
| 20260506004027 | 61 | 273 | 1.0 | 6.0 | 0.00 | 0.02 | 0.02 | 46 | 1004.3 |
| 20260506002244 | 61 | 197 | 2.0 | 5.0 | 0.00 | 0.02 | 0.02 | 47 | 1004.3 |
| 20260506001739 | 61 | 270 | 1.0 | 5.0 | 0.00 | 0.02 | 0.02 | 46 | 1004.4 |
| 20260506001228 | 61 | 223 | 1.0 | 8.0 | 0.00 | 0.02 | 0.02 | 46 | 1004.5 |
| 20260506000735 | 61 | 236 | 2.0 | 8.0 | 0.00 | 0.02 | 0.02 | 46 | 1004.4 |
| 20260505235606 | 60 | 263 | 1.0 | 6.0 | 0.00 | 0.02 | 0.02 | 47 | 1004.5 |
| 20260505235100 | 60 | 249 | 2.0 | 6.0 | 0.00 | 0.02 | 0.02 | 48 | 1004.4 |
| 20260505234552 | 60 | 227 | 2.0 | 7.0 | 0.00 | 0.02 | 0.02 | 47 | 1004.5 |
| 20260505234042 | 60 | 181 | 2.0 | 7.0 | 0.00 | 0.02 | 0.02 | 49 | 1004.5 |
| 20260505232919 | 60 | 193 | 2.0 | 8.0 | 0.00 | 0.02 | 0.02 | 49 | 1004.5 |
| 20260505231737 | 60 | 268 | 2.0 | 9.0 | 0.00 | 0.02 | 0.02 | 49 | 1004.6 |
| 20260505231227 | 60 | 206 | 3.0 | 9.0 | 0.00 | 0.02 | 0.02 | 49 | 1004.7 |
| 20260505230722 | 60 | 173 | 2.0 | 7.0 | 0.00 | 0.02 | 0.02 | 51 | 1004.8 |
| 20260505230228 | 59 | 181 | 3.0 | 7.0 | 0.00 | 0.02 | 0.02 | 53 | 1004.8 |
| 20260505225721 | 59 | 242 | 3.0 | 7.0 | 0.00 | 0.02 | 0.02 | 53 | 1004.8 |
| 20260505224605 | 58 | 222 | 2.0 | 6.0 | 0.00 | 0.02 | 0.02 | 53 | 1005.0 |
| 20260505224106 | 58 | 181 | 2.0 | 7.0 | 0.00 | 0.02 | 0.02 | 56 | 1005.0 |
| 20260505223601 | 58 | 155 | 2.0 | 7.0 | 0.00 | 0.02 | 0.02 | 55 | 1005.1 |
| 20260505223055 | 57 | 265 | 2.0 | 7.0 | 0.00 | 0.02 | 0.02 | 59 | 1005.2 |
| 20260505222602 | 57 | 242 | 1.0 | 7.0 | 0.00 | 0.02 | 0.02 | 57 | 1005.2 |
| 20260505221444 | 55 | 237 | 1.0 | 4.0 | 0.00 | 0.02 | 0.02 | 64 | 1005.1 |
| 20260505220951 | 55 | 254 | 1.0 | 4.0 | 0.00 | 0.02 | 0.02 | 64 | 1005.2 |
| 20260505220430 | 55 | 269 | 1.0 | 4.0 | 0.00 | 0.02 | 0.02 | 62 | 1005.2 |
| 20260505215926 | 56 | 249 | 0.0 | 4.0 | 0.00 | 0.02 | 0.02 | 61 | 1005.3 |
| 20260505215413 | 56 | 310 | 0.0 | 4.0 | 0.00 | 0.01 | 0.01 | 61 | 1005.4 |
| 20260505214915 | 57 | 155 | 0.0 | 4.0 | 0.00 | 0.01 | 0.01 | 60 | 1005.6 |
| 20260505214417 | 57 | 245 | 0.0 | 4.0 | 0.00 | 0.01 | 0.01 | 55 | 1005.6 |
| 20260505213928 | 58 | 243 | 0.0 | 0.0 | 0.00 | 0.01 | 0.01 | 53 | 1005.5 |
| 20260505213416 | 58 | 111 | 0.0 | 0.0 | 0.00 | 0.01 | 0.01 | 51 | 1005.7 |
| 20260505212902 | 58 | 106 | 0.0 | 0.0 | 0.00 | 0.01 | 0.01 | 46 | 1005.7 |
| 20260505211732 | 58 | 249 | 0.0 | 4.0 | 0.00 | 0.01 | 0.01 | 47 | 1005.7 |
| 20260505211222 | 58 | 232 | 0.0 | 9.0 | 0.00 | 0.01 | 0.01 | 47 | 1005.6 |
| 20260505210714 | 58 | 275 | 1.0 | 9.0 | 0.00 | 0.01 | 0.01 | 48 | 1005.5 |
| 20260505210207 | 58 | 223 | 3.0 | 9.0 | 0.00 | 0.01 | 0.01 | 46 | 1005.4 |
| 20260505205031 | 58 | 148 | 3.0 | 10.0 | 0.00 | 0.01 | 0.01 | 46 | 1005.4 |
| 20260505204517 | 58 | 235 | 2.0 | 10.0 | 0.00 | 0.01 | 0.01 | 47 | 1005.3 |
| 20260505202746 | 57 | 250 | 4.0 | 10.0 | 0.00 | 0.01 | 0.01 | 49 | 1005.3 |
| 20260505202250 | 57 | 234 | 3.0 | 10.0 | 0.00 | 0.01 | 0.01 | 48 | 1005.4 |
| 20260505201747 | 57 | 166 | 3.0 | 13.0 | 0.00 | 0.01 | 0.01 | 49 | 1005.4 |
| 20260505201233 | 57 | 204 | 4.0 | 13.0 | 0.00 | 0.01 | 0.01 | 48 | 1005.3 |
| 20260505200126 | 57 | 262 | 3.0 | 13.0 | 0.00 | 0.01 | 0.01 | 49 | 1005.3 |
| 20260505195636 | 57 | 164 | 3.0 | 12.0 | 0.00 | 0.01 | 0.01 | 50 | 1005.3 |
| 20260505195145 | 57 | 167 | 3.0 | 12.0 | 0.00 | 0.01 | 0.01 | 49 | 1005.3 |
| 20260505194039 | 57 | 265 | 4.0 | 12.0 | 0.00 | 0.01 | 0.01 | 50 | 1005.2 |
| 20260505193528 | 57 | 196 | 4.0 | 11.0 | 0.00 | 0.01 | 0.01 | 49 | 1005.2 |
| 20260505193028 | 57 | 209 | 4.0 | 12.0 | 0.00 | 0.01 | 0.01 | 50 | 1005.2 |
| 20260505192527 | 57 | 218 | 3.0 | 12.0 | 0.00 | 0.01 | 0.01 | 50 | 1005.3 |
| 20260505192026 | 57 | 256 | 4.0 | 12.0 | 0.00 | 0.01 | 0.01 | 50 | 1005.3 |
| 20260505191533 | 57 | 185 | 4.0 | 12.0 | 0.00 | 0.01 | 0.01 | 49 | 1005.3 |
| 20260505191038 | 57 | 211 | 3.0 | 11.0 | 0.00 | 0.01 | 0.01 | 49 | 1005.2 |
| 20260505190538 | 57 | 197 | 3.0 | 10.0 | 0.00 | 0.01 | 0.01 | 50 | 1005.1 |
| 20260505190022 | 57 | 239 | 4.0 | 12.0 | 0.00 | 0.01 | 0.01 | 51 | 1005.0 |
| 20260505185517 | 56 | 246 | 3.0 | 12.0 | 0.00 | 0.01 | 0.01 | 51 | 1005.0 |
| 20260505185016 | 56 | 224 | 4.0 | 12.0 | 0.00 | 0.01 | 0.01 | 52 | 1005.0 |
| 20260505184515 | 56 | 254 | 4.0 | 12.0 | 0.00 | 0.01 | 0.01 | 52 | 1005.1 |
| 20260505184021 | 56 | 228 | 5.0 | 15.0 | 0.00 | 0.01 | 0.01 | 52 | 1005.1 |
| 20260505182859 | 56 | 197 | 6.0 | 18.0 | 0.00 | 0.01 | 0.01 | 52 | 1005.0 |
| 20260505181740 | 56 | 188 | 4.0 | 18.0 | 0.00 | 0.01 | 0.01 | 52 | 1004.9 |
| 20260505181223 | 56 | 197 | 5.0 | 18.0 | 0.00 | 0.01 | 0.01 | 53 | 1004.9 |
| 20260505180723 | 55 | 261 | 7.0 | 18.0 | 0.00 | 0.01 | 0.01 | 53 | 1004.8 |
| 20260505180211 | 55 | 180 | 7.0 | 18.0 | 0.00 | 0.01 | 0.01 | 53 | 1004.7 |
| 20260505175659 | 55 | 184 | 6.0 | 16.0 | 0.00 | 0.01 | 0.01 | 55 | 1004.7 |
| 20260505175147 | 55 | 145 | 5.0 | 16.0 | 0.00 | 0.01 | 0.01 | 55 | 1004.8 |
| 20260505174040 | 54 | 173 | 5.0 | 13.0 | 0.00 | 0.01 | 0.01 | 56 | 1005.1 |
| 20260505172913 | 54 | 218 | 5.0 | 16.0 | 0.00 | 0.01 | 0.01 | 56 | 1004.9 |
| 20260505172403 | 54 | 237 | 5.0 | 16.0 | 0.00 | 0.01 | 0.01 | 56 | 1004.7 |
| 20260505171857 | 54 | 220 | 6.0 | 18.0 | 0.00 | 0.01 | 0.01 | 56 | 1004.8 |
| 20260505171349 | 54 | 254 | 8.0 | 18.0 | 0.00 | 0.01 | 0.01 | 56 | 1004.6 |
| 20260505165546 | 54 | 168 | 8.0 | 23.0 | 0.00 | 0.01 | 0.01 | 56 | 1004.6 |
| 20260505164430 | 54 | 253 | 6.0 | 20.0 | 0.00 | 0.01 | 0.01 | 57 | 1004.4 |
| 20260505163912 | 54 | 194 | 7.0 | 20.0 | 0.00 | 0.01 | 0.01 | 57 | 1004.3 |
| 20260505163359 | 54 | 208 | 6.0 | 20.0 | 0.00 | 0.01 | 0.01 | 56 | 1004.3 |
| 20260505162850 | 54 | 244 | 6.0 | 15.0 | 0.00 | 0.01 | 0.01 | 57 | 1004.3 |
| 20260505162357 | 55 | 211 | 7.0 | 17.0 | 0.00 | 0.01 | 0.01 | 57 | 1004.3 |
| 20260505161902 | 55 | 185 | 6.0 | 17.0 | 0.00 | 0.01 | 0.01 | 57 | 1004.2 |
| 20260505161409 | 55 | 203 | 6.0 | 18.0 | 0.00 | 0.01 | 0.01 | 56 | 1004.3 |
| 20260505160857 | 54 | 194 | 6.0 | 18.0 | 0.00 | 0.01 | 0.01 | 57 | 1004.0 |
| 20260505160351 | 54 | 267 | 6.0 | 18.0 | 0.00 | 0.01 | 0.01 | 57 | 1004.2 |
| 20260505152702 | 54 | 173 | 6.0 | 17.0 | 0.00 | 0.01 | 0.01 | 57 | 1003.8 |
| 20260505152159 | 54 | 189 | 7.0 | 17.0 | 0.00 | 0.01 | 0.01 | 56 | 1003.9 |
| 20260505151655 | 55 | 182 | 5.0 | 17.0 | 0.00 | 0.01 | 0.01 | 54 | 1003.9 |
| 20260505150543 | 55 | 178 | 5.0 | 12.0 | 0.00 | 0.01 | 0.01 | 53 | 1003.9 |
| 20260505140254 | 56 | 154 | 3.0 | 11.0 | 0.00 | 0.01 | 0.01 | 54 | 1003.4 |
| 20260505125022 | 55 | 213 | 0.0 | 5.0 | 0.00 | 0.01 | 0.01 | 65 | 1002.5 |
| 20260505124525 | 55 | 230 | 0.0 | 8.0 | 0.00 | 0.01 | 0.01 | 65 | 1002.5 |
| 20260505124034 | 55 | 275 | 0.0 | 8.0 | 0.00 | 0.01 | 0.01 | 65 | 1002.4 |
| 20260505123544 | 55 | 243 | 1.0 | 8.0 | 0.00 | 0.01 | 0.01 | 66 | 1002.3 |
| 20260505123053 | 55 | 232 | 1.0 | 8.0 | 0.00 | 0.01 | 0.01 | 66 | 1002.3 |
| 20260505122535 | 55 | 263 | 0.0 | 6.0 | 0.00 | 0.01 | 0.01 | 66 | 1002.2 |
| 20260505122033 | 55 | 227 | 0.0 | 6.0 | 0.00 | 0.01 | 0.01 | 65 | 1002.2 |
| 20260505121520 | 55 | 280 | 1.0 | 6.0 | 0.00 | 0.01 | 0.01 | 64 | 1002.1 |
| 20260505121029 | 55 | 266 | 1.0 | 6.0 | 0.00 | 0.01 | 0.01 | 63 | 1002.1 |
| 20260505120535 | 55 | 259 | 1.0 | 5.0 | 0.00 | 0.01 | 0.01 | 64 | 1002.1 |
| 20260505120026 | 55 | 275 | 1.0 | 5.0 | 0.00 | 0.01 | 0.01 | 63 | 1002.2 |
| 20260505114259 | 55 | 244 | 3.0 | 14.0 | 0.00 | 0.01 | 0.01 | 62 | 1002.1 |
| 20260505113758 | 55 | 239 | 3.0 | 14.0 | 0.00 | 0.01 | 0.01 | 62 | 1002.1 |
| 20260505113304 | 55 | 185 | 1.0 | 9.0 | 0.00 | 0.01 | 0.01 | 66 | 1002.1 |
| 20260505112754 | 55 | 182 | 1.0 | 9.0 | 0.00 | 0.01 | 0.01 | 67 | 1002.0 |
| 20260505112247 | 55 | 256 | 2.0 | 10.0 | 0.00 | 0.01 | 0.01 | 66 | 1002.0 |
| 20260505111755 | 55 | 224 | 2.0 | 10.0 | 0.00 | 0.01 | 0.01 | 66 | 1002.0 |
| 20260505110615 | 55 | 270 | 3.0 | 10.0 | 0.00 | 0.01 | 0.01 | 65 | 1001.9 |
| 20260505110120 | 55 | 155 | 2.0 | 9.0 | 0.00 | 0.01 | 0.01 | 65 | 1001.9 |
| 20260505101342 | 56 | 222 | 0.0 | 1.0 | 0.00 | 0.00 | 0.00 | 63 | 1002.2 |
| 20260505100834 | 56 | 277 | 0.0 | 0.0 | 0.00 | 0.00 | 0.00 | 62 | 1002.2 |
| 20260505100320 | 56 | 263 | 0.0 | 3.0 | 0.00 | 0.00 | 0.00 | 62 | 1002.2 |
| 20260505095815 | 57 | 278 | 0.0 | 0.0 | 0.00 | 0.00 | 0.00 | 63 | 1002.2 |
| 20260505095310 | 57 | 268 | 0.0 | 3.0 | 0.00 | 0.00 | 0.00 | 62 | 1002.2 |
| 20260505094149 | 57 | 272 | 0.0 | 5.0 | 0.00 | 0.00 | 0.00 | 61 | 1002.2 |
| 20260505093636 | 57 | 266 | 0.0 | 5.0 | 0.00 | 0.00 | 0.00 | 62 | 1002.2 |
| 20260505093138 | 57 | 263 | 0.0 | 4.0 | 0.00 | 0.00 | 0.00 | 62 | 1002.2 |
| 20260505092625 | 57 | 256 | 0.0 | 4.0 | 0.00 | 0.00 | 0.00 | 63 | 1002.1 |
| 20260505092115 | 56 | 258 | 0.0 | 2.0 | 0.00 | 0.00 | 0.00 | 64 | 1002.1 |
| 20260505091618 | 56 | 271 | 0.0 | 1.0 | 0.00 | 0.00 | 0.00 | 65 | 1002.1 |
| 20260505091116 | 56 | 260 | 0.0 | 0.0 | 0.00 | 0.00 | 0.00 | 64 | 1002.1 |
| 20260505090604 | 56 | 258 | 1.0 | 4.0 | 0.00 | 0.00 | 0.00 | 64 | 1002.2 |
| 20260505085437 | 56 | 256 | 1.0 | 7.0 | 0.00 | 0.00 | 0.00 | 64 | 1002.2 |
| 20260505084936 | 56 | 239 | 2.0 | 7.0 | 0.00 | 0.00 | 0.00 | 64 | 1002.2 |
| 20260505084435 | 56 | 247 | 2.0 | 7.0 | 0.00 | 0.00 | 0.00 | 63 | 1002.2 |
| 20260505083250 | 56 | 227 | 2.0 | 9.0 | 0.00 | 0.00 | 0.00 | 64 | 1002.3 |
| 20260505082751 | 57 | 257 | 2.0 | 9.0 | 0.00 | 0.00 | 0.00 | 63 | 1002.4 |
| 20260505082258 | 57 | 255 | 3.0 | 15.0 | 0.00 | 0.00 | 0.00 | 62 | 1002.3 |
| 20260505081744 | 57 | 281 | 4.0 | 15.0 | 0.00 | 0.00 | 0.00 | 62 | 1002.4 |
| 20260505080615 | 56 | 209 | 3.0 | 12.0 | 0.00 | 0.00 | 0.00 | 64 | 1002.5 |
| 20260505080057 | 56 | 270 | 4.0 | 14.0 | 0.00 | 0.00 | 0.00 | 64 | 1002.4 |
| 20260505075607 | 57 | 210 | 5.0 | 14.0 | 0.00 | 0.00 | 0.00 | 62 | 1002.5 |
| 20260505073748 | 58 | 167 | 5.0 | 16.0 | 0.00 | 0.00 | 0.00 | 54 | 1002.5 |
| 20260505073254 | 58 | 242 | 5.0 | 15.0 | 0.00 | 0.00 | 0.00 | 54 | 1002.6 |
| 20260505072755 | 58 | 175 | 4.0 | 14.0 | 0.00 | 0.00 | 0.00 | 53 | 1002.4 |
| 20260505072257 | 58 | 251 | 3.0 | 11.0 | 0.00 | 0.00 | 0.00 | 52 | 1002.4 |
| 20260505071737 | 58 | 253 | 4.0 | 16.0 | 0.00 | 0.00 | 0.00 | 51 | 1002.2 |
| 20260505071229 | 58 | 139 | 6.0 | 16.0 | 0.00 | 0.00 | 0.00 | 51 | 1002.2 |
| 20260505070116 | 58 | 288 | 7.0 | 16.0 | 0.00 | 0.00 | 0.00 | 53 | 1001.9 |
| 20260505065603 | 58 | 174 | 6.0 | 21.0 | 0.00 | 0.00 | 0.00 | 53 | 1002.0 |
| 20260505065059 | 58 | 204 | 7.0 | 21.0 | 0.00 | 0.00 | 0.00 | 53 | 1001.9 |
| 20260505064607 | 58 | 205 | 7.0 | 21.0 | 0.00 | 0.00 | 0.00 | 54 | 1001.8 |
| 20260505064116 | 58 | 216 | 7.0 | 21.0 | 0.00 | 0.00 | 0.00 | 54 | 1001.7 |
| 20260505063606 | 58 | 168 | 6.0 | 21.0 | 0.00 | 0.00 | 0.00 | 55 | 1001.8 |
| 20260505063107 | 58 | 197 | 8.0 | 21.0 | 0.00 | 0.00 | 0.00 | 54 | 1001.7 |
| 20260505062604 | 59 | 193 | 8.0 | 22.0 | 0.00 | 0.00 | 0.00 | 53 | 1001.7 |
| 20260505062056 | 58 | 199 | 7.0 | 22.0 | 0.00 | 0.00 | 0.00 | 53 | 1001.7 |
| 20260505060915 | 58 | 101 | 7.0 | 26.0 | 0.00 | 0.00 | 0.00 | 54 | 1001.7 |
| 20260505055743 | 59 | 213 | 9.0 | 26.0 | 0.00 | 0.00 | 0.00 | 54 | 1001.7 |
| 20260505055246 | 59 | 266 | 9.0 | 19.0 | 0.00 | 0.00 | 0.00 | 54 | 1001.8 |
| 20260505054749 | 59 | 234 | 8.0 | 19.0 | 0.00 | 0.00 | 0.00 | 54 | 1001.7 |
| 20260505054237 | 59 | 173 | 8.0 | 19.0 | 0.00 | 0.00 | 0.00 | 54 | 1001.8 |
| 20260505053719 | 59 | 178 | 8.0 | 19.0 | 0.00 | 0.00 | 0.00 | 54 | 1001.8 |
| 20260505053221 | 59 | 163 | 8.0 | 19.0 | 0.00 | 0.00 | 0.00 | 54 | 1001.8 |
| 20260505052730 | 60 | 179 | 9.0 | 28.0 | 0.00 | 0.00 | 0.00 | 54 | 1001.7 |
| 20260505051556 | 61 | 266 | 9.0 | 28.0 | 0.00 | 0.00 | 0.00 | 52 | 1001.7 |
| 20260505051105 | 61 | 171 | 8.0 | 28.0 | 0.00 | 0.00 | 0.00 | 51 | 1001.6 |
| 20260505050603 | 61 | 213 | 6.0 | 22.0 | 0.00 | 0.00 | 0.00 | 50 | 1001.6 |
| 20260505041411 | 64 | 181 | 4.0 | 14.0 | 0.00 | 0.00 | 0.00 | 39 | 1000.9 |
| 20260505040857 | 64 | 261 | 4.0 | 11.0 | 0.00 | 0.00 | 0.00 | 39 | 1000.8 |
| 20260505040406 | 64 | 223 | 4.0 | 11.0 | 0.00 | 0.00 | 0.00 | 40 | 1000.6 |